Time,TemperatureF,DewpointF,PressureIn,WindDirection,WindDirectionDegrees,WindSpeedMPH,WindSpeedGustMPH,Humidity,HourlyPrecipIn,Conditions,Clouds,dailyrainin,SoftwareType,DateUTC
2013-09-12 00:02:00,60.8,59.0,29.92,West,265,4.0,6.0,94,0.00,,,0.00,meteohub,2013-09-12 07:02:00,
2013-09-12 00:07:00,60.6,58.8,29.92,West,265,3.0,6.0,94,0.00,,,0.00,meteohub,2013-09-12 07:07:00,
2013-09-12 00:12:00,60.6,58.8,29.92,West,265,3.0,5.0,94,0.00,,,0.00,meteohub,2013-09-12 07:12:00,
2013-09-12 00:17:00,60.6,59.2,29.92,West,265,4.0,5.0,95,0.00,,,0.00,meteohub,2013-09-12 07:17:00,
2013-09-12 00:22:00,60.4,59.0,29.92,West,265,3.0,5.0,95,0.00,,,0.00,meteohub,2013-09-12 07:22:00,
2013-09-12 00:27:00,60.4,59.0,29.92,West,265,1.0,5.0,95,0.00,,,0.00,meteohub,2013-09-12 07:27:00,
2013-09-12 00:32:00,60.4,59.0,29.92,West,265,2.0,5.0,95,0.00,,,0.00,meteohub,2013-09-12 07:32:00,
2013-09-12 00:37:00,60.4,59.0,29.92,West,265,3.0,5.0,95,0.00,,,0.00,meteohub,2013-09-12 07:37:00,
2013-09-12 00:42:00,60.4,59.0,29.92,West,265,2.0,4.0,95,0.00,,,0.00,meteohub,2013-09-12 07:42:00,
2013-09-12 00:47:00,60.4,59.0,29.92,West,265,3.0,4.0,95,0.00,,,0.00,meteohub,2013-09-12 07:47:00,
2013-09-12 00:52:00,60.4,59.4,29.92,West,265,4.0,4.0,96,0.00,,,0.00,meteohub,2013-09-12 07:52:00,
2013-09-12 00:57:00,60.4,59.4,29.92,West,265,5.0,5.0,96,0.00,,,0.00,meteohub,2013-09-12 07:57:00,
2013-09-12 01:02:00,60.4,59.4,29.92,West,265,3.0,5.0,96,0.00,,,0.00,meteohub,2013-09-12 08:02:00,
2013-09-12 01:07:00,60.4,59.4,29.92,West,265,5.0,5.0,96,0.00,,,0.00,meteohub,2013-09-12 08:07:00,
2013-09-12 01:12:00,60.4,59.4,29.92,West,265,4.0,6.0,96,0.00,,,0.00,meteohub,2013-09-12 08:12:00,
2013-09-12 01:17:00,60.4,59.4,29.92,West,265,4.0,6.0,96,0.00,,,0.00,meteohub,2013-09-12 08:17:00,
2013-09-12 01:22:00,60.4,59.4,29.92,West,265,3.0,6.0,96,0.00,,,0.00,meteohub,2013-09-12 08:22:00,
2013-09-12 01:27:00,60.4,59.4,29.92,West,265,2.0,5.0,96,0.00,,,0.00,meteohub,2013-09-12 08:27:00,
2013-09-12 01:32:00,60.4,59.4,29.92,West,265,2.0,5.0,96,0.00,,,0.00,meteohub,2013-09-12 08:32:00,
2013-09-12 01:37:00,60.3,59.2,29.92,West,265,4.0,5.0,96,0.00,,,0.00,meteohub,2013-09-12 08:37:00,
2013-09-12 01:42:00,60.3,59.2,29.92,West,265,4.0,5.0,96,0.00,,,0.00,meteohub,2013-09-12 08:42:00,
2013-09-12 01:47:00,60.3,59.2,29.92,West,265,3.0,5.0,96,0.00,,,0.00,meteohub,2013-09-12 08:47:00,
2013-09-12 01:52:00,60.3,59.2,29.92,West,265,3.0,5.0,96,0.00,,,0.00,meteohub,2013-09-12 08:52:00,
2013-09-12 01:57:00,60.3,59.2,29.92,West,265,2.0,5.0,96,0.00,,,0.00,meteohub,2013-09-12 08:57:00,
2013-09-12 02:02:00,60.3,59.2,29.92,West,265,4.0,5.0,96,0.00,,,0.00,meteohub,2013-09-12 09:02:00,
2013-09-12 02:07:00,60.3,59.2,29.92,West,265,3.0,5.0,96,0.00,,,0.00,meteohub,2013-09-12 09:07:00,
2013-09-12 02:12:00,60.3,59.2,29.92,West,265,3.0,5.0,96,0.00,,,0.00,meteohub,2013-09-12 09:12:00,
2013-09-12 02:17:00,60.3,59.4,29.92,West,265,3.0,5.0,97,0.00,,,0.00,meteohub,2013-09-12 09:17:00,
2013-09-12 02:22:00,60.1,59.2,29.92,West,265,1.0,5.0,97,0.00,,,0.00,meteohub,2013-09-12 09:22:00,
2013-09-12 02:27:00,60.1,59.2,29.91,West,265,3.0,4.0,97,0.00,,,0.00,meteohub,2013-09-12 09:27:00,
2013-09-12 02:32:00,60.1,59.2,29.91,West,265,3.0,4.0,97,0.00,,,0.00,meteohub,2013-09-12 09:32:00,
2013-09-12 02:37:00,60.1,59.2,29.91,West,265,2.0,4.0,97,0.00,,,0.00,meteohub,2013-09-12 09:37:00,
2013-09-12 02:42:00,60.1,59.2,29.91,West,265,3.0,4.0,97,0.00,,,0.00,meteohub,2013-09-12 09:42:00,
2013-09-12 02:47:00,60.1,59.2,29.91,West,265,1.0,4.0,97,0.00,,,0.00,meteohub,2013-09-12 09:47:00,
2013-09-12 02:52:00,59.9,59.0,29.91,West,265,2.0,4.0,97,0.00,,,0.00,meteohub,2013-09-12 09:52:00,
2013-09-12 02:57:00,59.9,59.0,29.91,West,265,3.0,4.0,97,0.00,,,0.00,meteohub,2013-09-12 09:57:00,
2013-09-12 03:02:00,59.9,59.0,29.91,West,265,3.0,4.0,97,0.00,,,0.00,meteohub,2013-09-12 10:02:00,
2013-09-12 03:07:00,59.9,59.0,29.91,West,265,2.0,4.0,97,0.00,,,0.00,meteohub,2013-09-12 10:07:00,
2013-09-12 03:12:00,59.9,59.0,29.91,West,265,3.0,4.0,97,0.00,,,0.00,meteohub,2013-09-12 10:12:00,
2013-09-12 03:17:00,59.7,58.8,29.91,West,265,2.0,4.0,97,0.00,,,0.00,meteohub,2013-09-12 10:17:00,
2013-09-12 03:22:00,59.7,58.8,29.91,West,267,4.0,6.0,97,0.00,,,0.00,meteohub,2013-09-12 10:22:00,
2013-09-12 03:27:00,59.7,58.8,29.90,West,267,6.0,7.0,97,0.00,,,0.00,meteohub,2013-09-12 10:27:00,
2013-09-12 03:32:00,59.7,58.8,29.90,West,267,6.0,7.0,97,0.00,,,0.00,meteohub,2013-09-12 10:32:00,
2013-09-12 03:37:00,59.7,58.8,29.90,West,268,4.0,8.0,97,0.00,,,0.00,meteohub,2013-09-12 10:37:00,
2013-09-12 03:42:00,59.7,58.8,29.90,West,268,3.0,8.0,97,0.00,,,0.00,meteohub,2013-09-12 10:42:00,
2013-09-12 03:47:00,59.5,58.6,29.90,West,268,5.0,8.0,97,0.00,,,0.00,meteohub,2013-09-12 10:47:00,
2013-09-12 03:52:00,59.5,58.6,29.90,West,268,4.0,6.0,97,0.00,,,0.00,meteohub,2013-09-12 10:52:00,
2013-09-12 03:57:00,59.5,58.6,29.90,West,268,4.0,6.0,97,0.00,,,0.00,meteohub,2013-09-12 10:57:00,
2013-09-12 04:02:00,59.5,58.6,29.90,West,268,2.0,6.0,97,0.00,,,0.00,meteohub,2013-09-12 11:02:00,
2013-09-12 04:12:00,59.5,58.6,29.90,West,268,4.0,6.0,97,0.00,,,0.00,meteohub,2013-09-12 11:12:00,
2013-09-12 04:17:00,59.5,58.6,29.90,West,268,3.0,5.0,97,0.00,,,0.00,meteohub,2013-09-12 11:17:00,
2013-09-12 04:22:00,59.5,58.6,29.90,West,268,3.0,5.0,97,0.00,,,0.00,meteohub,2013-09-12 11:22:00,
2013-09-12 04:27:00,59.5,58.6,29.90,West,268,3.0,4.0,97,0.00,,,0.00,meteohub,2013-09-12 11:27:00,
2013-09-12 04:32:00,59.5,58.6,29.90,West,268,4.0,4.0,97,0.00,,,0.00,meteohub,2013-09-12 11:32:00,
2013-09-12 04:37:00,59.5,58.6,29.90,West,268,6.0,6.0,97,0.00,,,0.00,meteohub,2013-09-12 11:37:00,
2013-09-12 04:42:00,59.4,58.5,29.90,West,268,4.0,7.0,97,0.00,,,0.00,meteohub,2013-09-12 11:42:00,
2013-09-12 04:47:00,59.4,58.5,29.90,West,268,6.0,7.0,97,0.00,,,0.00,meteohub,2013-09-12 11:47:00,
2013-09-12 04:52:00,59.4,58.5,29.90,West,268,3.0,7.0,97,0.00,,,0.00,meteohub,2013-09-12 11:52:00,
2013-09-12 04:57:00,59.4,58.5,29.90,West,268,3.0,6.0,97,0.00,,,0.00,meteohub,2013-09-12 11:57:00,
2013-09-12 05:02:00,59.2,58.3,29.90,West,268,2.0,6.0,97,0.00,,,0.00,meteohub,2013-09-12 12:02:00,
2013-09-12 05:07:00,59.4,58.5,29.90,West,268,3.0,5.0,97,0.00,,,0.00,meteohub,2013-09-12 12:07:00,
2013-09-12 05:12:00,59.4,58.5,29.90,West,268,6.0,6.0,97,0.00,,,0.00,meteohub,2013-09-12 12:12:00,
2013-09-12 05:17:00,59.2,58.3,29.90,West,268,4.0,6.0,97,0.00,,,0.00,meteohub,2013-09-12 12:17:00,
2013-09-12 05:22:00,59.0,58.1,29.90,West,268,2.0,6.0,97,0.00,,,0.00,meteohub,2013-09-12 12:22:00,
2013-09-12 05:27:00,59.0,58.1,29.90,West,268,1.0,6.0,97,0.00,,,0.00,meteohub,2013-09-12 12:27:00,
2013-09-12 05:32:00,59.0,58.1,29.90,West,268,3.0,5.0,97,0.00,,,0.00,meteohub,2013-09-12 12:32:00,
2013-09-12 05:37:00,58.8,57.9,29.90,West,268,2.0,5.0,97,0.00,,,0.00,meteohub,2013-09-12 12:37:00,
2013-09-12 05:42:00,58.6,57.7,29.90,West,268,3.0,6.0,97,0.00,,,0.00,meteohub,2013-09-12 12:42:00,
2013-09-12 05:47:00,58.6,57.7,29.90,West,268,3.0,6.0,97,0.00,,,0.00,meteohub,2013-09-12 12:47:00,
2013-09-12 05:52:00,58.5,57.6,29.90,West,268,2.0,6.0,97,0.00,,,0.00,meteohub,2013-09-12 12:52:00,
2013-09-12 05:57:00,58.5,57.6,29.90,West,268,2.0,5.0,97,0.00,,,0.00,meteohub,2013-09-12 12:57:00,
2013-09-12 06:02:00,58.5,57.6,29.90,West,268,1.0,5.0,97,0.00,,,0.00,meteohub,2013-09-12 13:02:00,
2013-09-12 06:07:00,58.5,57.6,29.90,West,268,2.0,5.0,97,0.00,,,0.00,meteohub,2013-09-12 13:07:00,
2013-09-12 06:12:00,58.3,57.4,29.90,West,268,2.0,5.0,97,0.00,,,0.00,meteohub,2013-09-12 13:12:00,
2013-09-12 06:17:00,58.3,57.4,29.90,West,268,4.0,5.0,97,0.00,,,0.00,meteohub,2013-09-12 13:17:00,
2013-09-12 06:22:00,58.3,57.4,29.90,West,268,3.0,5.0,97,0.00,,,0.00,meteohub,2013-09-12 13:22:00,
2013-09-12 06:27:00,58.3,57.4,29.90,West,268,3.0,5.0,97,0.00,,,0.00,meteohub,2013-09-12 13:27:00,
2013-09-12 06:32:00,58.3,57.4,29.90,West,268,3.0,5.0,97,0.00,,,0.00,meteohub,2013-09-12 13:32:00,
2013-09-12 06:37:00,58.3,57.4,29.90,West,268,3.0,5.0,97,0.00,,,0.00,meteohub,2013-09-12 13:37:00,
2013-09-12 06:42:00,58.1,57.2,29.91,West,268,3.0,6.0,97,0.00,,,0.00,meteohub,2013-09-12 13:42:00,
2013-09-12 06:47:00,57.9,57.0,29.91,West,268,2.0,6.0,97,0.00,,,0.00,meteohub,2013-09-12 13:47:00,
2013-09-12 06:52:00,58.1,57.2,29.91,West,268,2.0,6.0,97,0.00,,,0.00,meteohub,2013-09-12 13:52:00,
2013-09-12 06:57:00,58.1,57.2,29.92,West,268,2.0,5.0,97,0.00,,,0.00,meteohub,2013-09-12 13:57:00,
2013-09-12 07:02:00,58.1,57.2,29.92,West,268,1.0,5.0,97,0.00,,,0.00,meteohub,2013-09-12 14:02:00,
2013-09-12 07:07:00,58.1,57.2,29.92,West,268,2.0,5.0,97,0.00,,,0.00,meteohub,2013-09-12 14:07:00,
2013-09-12 07:12:00,57.9,57.0,29.92,West,268,1.0,6.0,97,0.00,,,0.00,meteohub,2013-09-12 14:12:00,
2013-09-12 07:17:00,57.9,57.0,29.92,West,268,5.0,6.0,97,0.00,,,0.00,meteohub,2013-09-12 14:17:00,
2013-09-12 07:22:00,57.9,57.0,29.92,West,268,4.0,6.0,97,0.00,,,0.00,meteohub,2013-09-12 14:22:00,
2013-09-12 07:27:00,57.9,57.0,29.92,West,268,3.0,6.0,97,0.00,,,0.00,meteohub,2013-09-12 14:27:00,
2013-09-12 07:32:00,57.9,57.4,29.92,West,268,6.0,6.0,98,0.00,,,0.00,meteohub,2013-09-12 14:32:00,
2013-09-12 07:37:00,57.9,57.0,29.92,West,268,4.0,8.0,97,0.00,,,0.00,meteohub,2013-09-12 14:37:00,
2013-09-12 07:42:00,57.7,57.2,29.92,West,268,2.0,8.0,98,0.00,,,0.00,meteohub,2013-09-12 14:42:00,
2013-09-12 07:47:00,57.9,57.4,29.92,West,268,3.0,8.0,98,0.00,,,0.00,meteohub,2013-09-12 14:47:00,
2013-09-12 07:52:00,57.9,57.0,29.92,West,268,2.0,8.0,97,0.00,,,0.00,meteohub,2013-09-12 14:52:00,
2013-09-12 07:57:00,57.7,57.2,29.93,West,268,5.0,8.0,98,0.00,,,0.00,meteohub,2013-09-12 14:57:00,
2013-09-12 08:02:00,57.7,57.2,29.93,West,268,5.0,8.0,98,0.00,,,0.00,meteohub,2013-09-12 15:02:00,
2013-09-12 08:07:00,57.7,57.2,29.93,West,268,8.0,8.0,98,0.00,,,0.00,meteohub,2013-09-12 15:07:00,
2013-09-12 08:12:00,57.7,57.2,29.93,West,268,7.0,8.0,98,0.00,,,0.00,meteohub,2013-09-12 15:12:00,
2013-09-12 08:17:00,57.6,56.7,29.93,West,268,7.0,10.0,97,0.00,,,0.00,meteohub,2013-09-12 15:17:00,
2013-09-12 08:22:00,57.7,57.2,29.93,West,269,6.0,10.0,98,0.00,,,0.00,meteohub,2013-09-12 15:22:00,
2013-09-12 08:27:00,57.6,57.0,29.93,West,271,5.0,10.0,98,0.00,,,0.00,meteohub,2013-09-12 15:27:00,
2013-09-12 08:32:00,57.7,56.8,29.93,West,274,4.0,8.0,97,0.00,,,0.00,meteohub,2013-09-12 15:32:00,
2013-09-12 08:37:00,57.7,57.2,29.93,West,271,7.0,8.0,98,0.00,,,0.00,meteohub,2013-09-12 15:37:00,
2013-09-12 08:42:00,57.4,56.5,29.93,West,271,4.0,9.0,97,0.00,,,0.00,meteohub,2013-09-12 15:42:00,
2013-09-12 08:47:00,57.6,56.7,29.93,West,270,5.0,9.0,97,0.00,,,0.00,meteohub,2013-09-12 15:47:00,
2013-09-12 08:52:00,57.7,57.2,29.93,West,270,3.0,9.0,98,0.00,,,0.00,meteohub,2013-09-12 15:52:00,
2013-09-12 08:57:00,57.9,57.4,29.93,West,270,3.0,8.0,98,0.00,,,0.00,meteohub,2013-09-12 15:57:00,
2013-09-12 09:07:00,58.1,57.6,29.93,West,271,5.0,8.0,98,0.00,,,0.00,meteohub,2013-09-12 16:07:00,
2013-09-12 09:12:00,57.9,57.4,29.93,West,273,5.0,8.0,98,0.00,,,0.00,meteohub,2013-09-12 16:12:00,
2013-09-12 09:17:00,57.7,57.2,29.93,West,277,5.0,10.0,98,0.00,,,0.00,meteohub,2013-09-12 16:17:00,
2013-09-12 09:22:00,57.9,57.4,29.93,West,277,4.0,11.0,98,0.00,,,0.00,meteohub,2013-09-12 16:22:00,
2013-09-12 09:27:00,58.3,57.7,29.94,West,277,6.0,11.0,98,0.00,,,0.00,meteohub,2013-09-12 16:27:00,
2013-09-12 09:32:00,58.5,57.9,29.94,West,264,6.0,9.0,98,0.00,,,0.00,meteohub,2013-09-12 16:32:00,
2013-09-12 09:37:00,58.5,57.9,29.94,West,264,6.0,10.0,98,0.00,,,0.00,meteohub,2013-09-12 16:37:00,
2013-09-12 09:42:00,58.6,58.1,29.94,West,264,9.0,10.0,98,0.00,,,0.00,meteohub,2013-09-12 16:42:00,
2013-09-12 09:47:00,58.5,57.9,29.94,West,269,7.0,10.0,98,0.00,,,0.00,meteohub,2013-09-12 16:47:00,
2013-09-12 09:52:00,58.6,58.1,29.94,West,279,5.0,9.0,98,0.00,,,0.00,meteohub,2013-09-12 16:52:00,
2013-09-12 09:57:00,58.8,57.9,29.94,West,281,10.0,10.0,97,0.00,,,0.00,meteohub,2013-09-12 16:57:00,
2013-09-12 10:02:00,58.8,58.3,29.94,West,271,6.0,10.0,98,0.00,,,0.00,meteohub,2013-09-12 17:02:00,
2013-09-12 10:12:00,59.2,58.6,29.94,West,275,4.0,10.0,98,0.00,,,0.00,meteohub,2013-09-12 17:12:00,
2013-09-12 10:17:00,59.2,58.3,29.94,West,275,6.0,9.0,97,0.00,,,0.00,meteohub,2013-09-12 17:17:00,
2013-09-12 10:22:00,59.4,58.5,29.94,West,277,8.0,8.0,97,0.00,,,0.00,meteohub,2013-09-12 17:22:00,
2013-09-12 10:27:00,59.2,58.3,29.94,West,277,5.0,10.0,97,0.00,,,0.00,meteohub,2013-09-12 17:27:00,
2013-09-12 10:32:00,59.4,58.5,29.94,West,277,5.0,10.0,97,0.00,,,0.00,meteohub,2013-09-12 17:32:00,
2013-09-12 10:37:00,59.4,58.5,29.94,West,279,6.0,10.0,97,0.00,,,0.00,meteohub,2013-09-12 17:37:00,
2013-09-12 10:42:00,59.4,58.5,29.93,West,274,3.0,10.0,97,0.00,,,0.00,meteohub,2013-09-12 17:42:00,
2013-09-12 10:47:00,59.5,58.6,29.93,West,271,6.0,10.0,97,0.00,,,0.00,meteohub,2013-09-12 17:47:00,
2013-09-12 10:52:00,59.5,58.6,29.93,West,271,5.0,10.0,97,0.00,,,0.00,meteohub,2013-09-12 17:52:00,
2013-09-12 10:57:00,59.7,58.8,29.93,West,271,3.0,10.0,97,0.00,,,0.00,meteohub,2013-09-12 17:57:00,
2013-09-12 11:02:00,60.3,59.4,29.93,West,271,5.0,10.0,97,0.00,,,0.00,meteohub,2013-09-12 18:02:00,
2013-09-12 11:07:00,60.3,59.2,29.93,West,269,2.0,9.0,96,0.00,,,0.00,meteohub,2013-09-12 18:07:00,
2013-09-12 11:12:00,60.4,59.4,29.93,West,270,4.0,9.0,96,0.00,,,0.00,meteohub,2013-09-12 18:12:00,
2013-09-12 11:17:00,60.6,59.5,29.93,West,275,6.0,9.0,96,0.00,,,0.00,meteohub,2013-09-12 18:17:00,
2013-09-12 11:22:00,61.2,60.1,29.93,West,269,8.0,9.0,96,0.00,,,0.00,meteohub,2013-09-12 18:22:00,
2013-09-12 11:27:00,61.3,59.9,29.93,West,267,6.0,10.0,95,0.00,,,0.00,meteohub,2013-09-12 18:27:00,
2013-09-12 11:32:00,61.5,60.1,29.93,West,266,8.0,10.0,95,0.00,,,0.00,meteohub,2013-09-12 18:32:00,
2013-09-12 11:37:00,62.1,60.3,29.93,West,259,5.0,10.0,94,0.00,,,0.00,meteohub,2013-09-12 18:37:00,
2013-09-12 11:42:00,62.2,60.3,29.93,West,261,5.0,10.0,93,0.00,,,0.00,meteohub,2013-09-12 18:42:00,
2013-09-12 11:47:00,62.4,60.1,29.93,West,263,9.0,10.0,92,0.00,,,0.00,meteohub,2013-09-12 18:47:00,
2013-09-12 11:52:00,63.0,60.6,29.93,West,273,6.0,11.0,92,0.00,,,0.00,meteohub,2013-09-12 18:52:00,
2013-09-12 11:57:00,63.0,59.7,29.92,West,277,2.0,11.0,89,0.00,,,0.00,meteohub,2013-09-12 18:57:00,
2013-09-12 12:02:00,63.7,60.1,29.92,WNW,286,5.0,11.0,88,0.00,,,0.00,meteohub,2013-09-12 19:02:00,
2013-09-12 12:07:00,64.2,60.3,29.92,West,275,6.0,10.0,87,0.00,,,0.00,meteohub,2013-09-12 19:07:00,
2013-09-12 12:12:00,64.6,60.3,29.92,WNW,284,4.0,11.0,86,0.00,,,0.00,meteohub,2013-09-12 19:12:00,
2013-09-12 12:17:00,64.8,59.9,29.92,WNW,294,0.0,11.0,84,0.00,,,0.00,meteohub,2013-09-12 19:17:00,
2013-09-12 12:22:00,66.4,60.8,29.92,West,266,9.0,11.0,82,0.00,,,0.00,meteohub,2013-09-12 19:22:00,
2013-09-12 12:27:00,66.7,60.4,29.92,WNW,282,7.0,11.0,80,0.00,,,0.00,meteohub,2013-09-12 19:27:00,
2013-09-12 12:32:00,66.9,61.0,29.92,WNW,294,3.0,11.0,81,0.00,,,0.00,meteohub,2013-09-12 19:32:00,
2013-09-12 12:37:00,67.8,61.0,29.92,West,276,9.0,11.0,79,0.00,,,0.00,meteohub,2013-09-12 19:37:00,
2013-09-12 12:42:00,68.5,60.6,29.91,WNW,282,6.0,12.0,76,0.00,,,0.00,meteohub,2013-09-12 19:42:00,
2013-09-12 12:47:00,68.7,60.4,29.91,WNW,302,8.0,13.0,75,0.00,,,0.00,meteohub,2013-09-12 19:47:00,
2013-09-12 12:52:00,68.9,60.6,29.91,West,263,4.0,13.0,75,0.00,,,0.00,meteohub,2013-09-12 19:52:00,
2013-09-12 12:57:00,69.3,60.6,29.91,West,267,11.0,13.0,74,0.00,,,0.00,meteohub,2013-09-12 19:57:00,
2013-09-12 13:02:00,70.0,60.6,29.91,WSW,252,4.0,14.0,72,0.00,,,0.00,meteohub,2013-09-12 20:02:00,
2013-09-12 13:07:00,69.6,60.6,29.91,WNW,288,7.0,14.0,73,0.00,,,0.00,meteohub,2013-09-12 20:07:00,
2013-09-12 13:12:00,69.4,60.4,29.91,WNW,283,6.0,13.0,73,0.00,,,0.00,meteohub,2013-09-12 20:12:00,
2013-09-12 13:17:00,69.8,60.4,29.91,WSW,257,12.0,13.0,72,0.00,,,0.00,meteohub,2013-09-12 20:17:00,
2013-09-12 13:22:00,69.4,60.1,29.91,West,281,10.0,16.0,72,0.00,,,0.00,meteohub,2013-09-12 20:22:00,
2013-09-12 13:27:00,70.5,60.3,29.91,West,264,10.0,16.0,70,0.00,,,0.00,meteohub,2013-09-12 20:27:00,
2013-09-12 13:32:00,70.9,60.6,29.91,West,261,8.0,16.0,70,0.00,,,0.00,meteohub,2013-09-12 20:32:00,
2013-09-12 13:37:00,70.3,60.4,29.91,WNW,283,13.0,20.0,71,0.00,,,0.00,meteohub,2013-09-12 20:37:00,
2013-09-12 13:42:00,70.9,60.6,29.90,WNW,284,10.0,20.0,70,0.00,,,0.00,meteohub,2013-09-12 20:42:00,
2013-09-12 13:47:00,70.3,60.1,29.90,West,267,13.0,20.0,70,0.00,,,0.00,meteohub,2013-09-12 20:47:00,
2013-09-12 13:57:00,69.8,59.5,29.90,WSW,253,16.0,18.0,70,0.00,,,0.00,meteohub,2013-09-12 20:57:00,
2013-09-12 14:02:00,69.3,59.9,29.90,West,265,13.0,19.0,72,0.00,,,0.00,meteohub,2013-09-12 21:02:00,
2013-09-12 14:07:00,68.9,59.5,29.90,West,268,7.0,19.0,72,0.00,,,0.00,meteohub,2013-09-12 21:07:00,
2013-09-12 14:12:00,68.7,59.7,29.90,West,264,15.0,19.0,73,0.00,,,0.00,meteohub,2013-09-12 21:12:00,
2013-09-12 14:17:00,68.7,59.7,29.90,WSW,249,11.0,19.0,73,0.00,,,0.00,meteohub,2013-09-12 21:17:00,
2013-09-12 14:22:00,67.8,59.2,29.90,SW,232,12.0,18.0,74,0.00,,,0.00,meteohub,2013-09-12 21:22:00,
2013-09-12 14:27:00,67.6,59.0,29.89,SW,234,13.0,18.0,74,0.00,,,0.00,meteohub,2013-09-12 21:27:00,
2013-09-12 14:32:00,68.2,59.5,29.89,WSW,244,10.0,18.0,74,0.00,,,0.00,meteohub,2013-09-12 21:32:00,
2013-09-12 14:37:00,67.3,59.0,29.89,WSW,250,11.0,18.0,75,0.00,,,0.00,meteohub,2013-09-12 21:37:00,
2013-09-12 14:47:00,68.0,59.4,29.89,West,263,15.0,21.0,74,0.00,,,0.00,meteohub,2013-09-12 21:47:00,
2013-09-12 14:52:00,68.0,59.4,29.89,WSW,251,17.0,19.0,74,0.00,,,0.00,meteohub,2013-09-12 21:52:00,
2013-09-12 14:57:00,67.8,59.2,29.89,WSW,256,15.0,20.0,74,0.00,,,0.00,meteohub,2013-09-12 21:57:00,
2013-09-12 15:07:00,67.5,59.2,29.89,WSW,246,11.0,22.0,75,0.00,,,0.00,meteohub,2013-09-12 22:07:00,
2013-09-12 15:12:00,66.9,59.5,29.89,WSW,255,13.0,22.0,77,0.00,,,0.00,meteohub,2013-09-12 22:12:00,
2013-09-12 15:17:00,66.7,58.6,29.89,West,266,21.0,22.0,75,0.00,,,0.00,meteohub,2013-09-12 22:17:00,
2013-09-12 15:22:00,65.8,58.8,29.89,SW,235,17.0,23.0,78,0.00,,,0.00,meteohub,2013-09-12 22:22:00,
2013-09-12 15:27:00,66.2,58.8,29.89,West,265,13.0,23.0,77,0.00,,,0.00,meteohub,2013-09-12 22:27:00,
2013-09-12 15:32:00,66.4,58.6,29.89,West,259,19.0,23.0,76,0.00,,,0.00,meteohub,2013-09-12 22:32:00,
2013-09-12 15:37:00,66.0,58.3,29.89,WSW,256,16.0,23.0,76,0.00,,,0.00,meteohub,2013-09-12 22:37:00,
2013-09-12 15:42:00,65.8,58.1,29.88,WSW,258,23.0,25.0,76,0.00,,,0.00,meteohub,2013-09-12 22:42:00,
2013-09-12 15:47:00,65.8,58.5,29.88,West,267,19.0,26.0,77,0.00,,,0.00,meteohub,2013-09-12 22:47:00,
2013-09-12 15:52:00,65.8,58.1,29.88,West,273,23.0,26.0,76,0.00,,,0.00,meteohub,2013-09-12 22:52:00,
2013-09-12 15:57:00,65.8,58.5,29.88,West,273,16.0,26.0,77,0.00,,,0.00,meteohub,2013-09-12 22:57:00,
2013-09-12 16:02:00,65.5,57.7,29.88,West,279,14.0,26.0,76,0.00,,,0.00,meteohub,2013-09-12 23:02:00,
2013-09-12 16:07:00,65.1,58.1,29.88,WSW,253,18.0,26.0,78,0.00,,,0.00,meteohub,2013-09-12 23:07:00,
2013-09-12 16:12:00,65.1,58.1,29.88,WNW,288,16.0,26.0,78,0.00,,,0.00,meteohub,2013-09-12 23:12:00,
2013-09-12 16:17:00,64.8,58.1,29.88,WSW,254,26.0,26.0,79,0.00,,,0.00,meteohub,2013-09-12 23:17:00,
2013-09-12 16:22:00,64.0,57.7,29.88,West,268,14.0,26.0,80,0.00,,,0.00,meteohub,2013-09-12 23:22:00,
2013-09-12 16:27:00,64.2,57.6,29.87,West,265,25.0,26.0,79,0.00,,,0.00,meteohub,2013-09-12 23:27:00,
2013-09-12 16:32:00,64.2,58.3,29.87,West,271,16.0,26.0,81,0.00,,,0.00,meteohub,2013-09-12 23:32:00,
2013-09-12 16:37:00,64.6,57.9,29.87,WSW,253,17.0,26.0,79,0.00,,,0.00,meteohub,2013-09-12 23:37:00,
2013-09-12 16:42:00,64.9,57.9,29.87,WSW,250,16.0,26.0,78,0.00,,,0.00,meteohub,2013-09-12 23:42:00,
2013-09-12 16:47:00,64.8,57.7,29.87,WSW,256,20.0,25.0,78,0.00,,,0.00,meteohub,2013-09-12 23:47:00,
2013-09-12 16:52:00,64.4,57.7,29.87,West,267,21.0,25.0,79,0.00,,,0.00,meteohub,2013-09-12 23:52:00,
2013-09-12 16:57:00,64.4,58.1,29.87,West,259,14.0,28.0,80,0.00,,,0.00,meteohub,2013-09-12 23:57:00,
2013-09-12 17:02:00,64.0,58.1,29.87,WSW,247,18.0,28.0,81,0.00,,,0.00,meteohub,2013-09-13 00:02:00,
2013-09-12 17:07:00,63.9,57.9,29.87,WSW,256,22.0,28.0,81,0.00,,,0.00,meteohub,2013-09-13 00:07:00,
2013-09-12 17:12:00,63.5,57.9,29.86,WSW,250,17.0,27.0,82,0.00,,,0.00,meteohub,2013-09-13 00:12:00,
2013-09-12 17:17:00,63.7,58.1,29.86,West,260,21.0,27.0,82,0.00,,,0.00,meteohub,2013-09-13 00:17:00,
2013-09-12 17:22:00,63.1,57.9,29.86,West,263,15.0,27.0,83,0.00,,,0.00,meteohub,2013-09-13 00:22:00,
2013-09-12 17:27:00,63.0,58.1,29.86,WSW,245,23.0,25.0,84,0.00,,,0.00,meteohub,2013-09-13 00:27:00,
2013-09-12 17:32:00,62.2,57.7,29.86,WSW,258,19.0,25.0,85,0.00,,,0.00,meteohub,2013-09-13 00:32:00,
2013-09-12 17:37:00,61.5,57.4,29.86,West,261,18.0,25.0,86,0.00,,,0.00,meteohub,2013-09-13 00:37:00,
2013-09-12 17:42:00,61.0,57.0,29.86,West,261,15.0,27.0,87,0.00,,,0.00,meteohub,2013-09-13 00:42:00,
2013-09-12 17:47:00,60.6,57.0,29.86,WSW,258,21.0,27.0,88,0.00,,,0.00,meteohub,2013-09-13 00:47:00,
2013-09-12 17:52:00,60.3,57.0,29.86,West,270,15.0,28.0,89,0.00,,,0.00,meteohub,2013-09-13 00:52:00,
2013-09-12 17:57:00,60.1,56.8,29.86,West,263,13.0,28.0,89,0.00,,,0.00,meteohub,2013-09-13 00:57:00,
2013-09-12 18:02:00,59.9,57.0,29.86,WSW,252,18.0,28.0,90,0.00,,,0.00,meteohub,2013-09-13 01:02:00,
2013-09-12 18:07:00,59.7,56.8,29.86,WSW,257,21.0,27.0,90,0.00,,,0.00,meteohub,2013-09-13 01:07:00,
2013-09-12 18:12:00,59.5,56.8,29.86,West,262,24.0,27.0,91,0.00,,,0.00,meteohub,2013-09-13 01:12:00,
2013-09-12 18:17:00,59.4,56.7,29.86,WSW,250,13.0,28.0,91,0.00,,,0.00,meteohub,2013-09-13 01:17:00,
2013-09-12 18:22:00,59.2,56.5,29.86,West,265,15.0,28.0,91,0.00,,,0.00,meteohub,2013-09-13 01:22:00,
2013-09-12 18:27:00,58.8,56.5,29.86,WSW,246,17.0,28.0,92,0.00,,,0.00,meteohub,2013-09-13 01:27:00,
2013-09-12 18:32:00,58.5,56.5,29.86,West,265,16.0,25.0,93,0.00,,,0.00,meteohub,2013-09-13 01:32:00,
2013-09-12 18:37:00,58.5,56.5,29.86,WSW,246,17.0,25.0,93,0.00,,,0.00,meteohub,2013-09-13 01:37:00,
2013-09-12 18:42:00,58.3,56.3,29.86,West,273,22.0,25.0,93,0.00,,,0.00,meteohub,2013-09-13 01:42:00,
2013-09-12 18:47:00,58.5,56.7,29.86,WSW,257,16.0,24.0,94,0.00,,,0.00,meteohub,2013-09-13 01:47:00,
2013-09-12 18:52:00,58.5,56.7,29.86,WSW,257,14.0,24.0,94,0.00,,,0.00,meteohub,2013-09-13 01:52:00,
2013-09-12 18:57:00,58.6,56.8,29.86,WSW,243,14.0,24.0,94,0.00,,,0.00,meteohub,2013-09-13 01:57:00,
2013-09-12 19:02:00,58.5,56.5,29.86,West,269,14.0,22.0,93,0.00,,,0.00,meteohub,2013-09-13 02:02:00,
2013-09-12 19:07:00,58.5,56.5,29.86,West,263,13.0,22.0,93,0.00,,,0.00,meteohub,2013-09-13 02:07:00,
2013-09-12 19:12:00,58.3,56.5,29.85,WSW,251,14.0,22.0,94,0.00,,,0.00,meteohub,2013-09-13 02:12:00,
2013-09-12 19:17:00,58.3,56.5,29.85,West,260,19.0,22.0,94,0.00,,,0.00,meteohub,2013-09-13 02:17:00,
2013-09-12 19:22:00,58.1,56.3,29.85,West,266,11.0,22.0,94,0.00,,,0.00,meteohub,2013-09-13 02:22:00,
2013-09-12 19:27:00,57.9,56.1,29.85,WSW,248,20.0,22.0,94,0.00,,,0.00,meteohub,2013-09-13 02:27:00,
2013-09-12 19:32:00,57.9,56.1,29.85,WSW,246,20.0,23.0,94,0.00,,,0.00,meteohub,2013-09-13 02:32:00,
2013-09-12 19:37:00,57.9,56.1,29.85,West,259,18.0,23.0,94,0.00,,,0.00,meteohub,2013-09-13 02:37:00,
2013-09-12 19:42:00,57.9,56.1,29.85,West,259,18.0,23.0,94,0.00,,,0.00,meteohub,2013-09-13 02:42:00,
2013-09-12 19:47:00,57.7,56.3,29.85,West,263,15.0,23.0,95,0.00,,,0.00,meteohub,2013-09-13 02:47:00,
2013-09-12 19:52:00,57.7,56.3,29.85,West,266,20.0,23.0,95,0.00,,,0.00,meteohub,2013-09-13 02:52:00,
2013-09-12 19:57:00,57.7,56.3,29.85,WSW,258,14.0,23.0,95,0.00,,,0.00,meteohub,2013-09-13 02:57:00,
2013-09-12 20:02:00,57.6,56.1,29.85,WSW,244,15.0,23.0,95,0.00,,,0.00,meteohub,2013-09-13 03:02:00,
2013-09-12 20:07:00,57.6,56.1,29.85,WSW,257,16.0,23.0,95,0.00,,,0.00,meteohub,2013-09-13 03:07:00,
2013-09-12 20:17:00,57.4,55.9,29.85,West,263,19.0,22.0,95,0.00,,,0.00,meteohub,2013-09-13 03:17:00,
2013-09-12 20:22:00,57.2,55.8,29.85,WSW,242,19.0,21.0,95,0.00,,,0.00,meteohub,2013-09-13 03:22:00,
2013-09-12 20:27:00,57.2,56.1,29.85,West,261,16.0,21.0,96,0.00,,,0.00,meteohub,2013-09-13 03:27:00,
2013-09-12 20:32:00,57.0,55.9,29.85,WSW,254,18.0,21.0,96,0.00,,,0.00,meteohub,2013-09-13 03:32:00,
2013-09-12 20:37:00,57.0,55.9,29.85,West,261,13.0,20.0,96,0.00,,,0.00,meteohub,2013-09-13 03:37:00,
2013-09-12 20:42:00,57.0,55.9,29.86,SW,236,13.0,20.0,96,0.00,,,0.00,meteohub,2013-09-13 03:42:00,
2013-09-12 20:47:00,57.0,55.9,29.86,WSW,252,13.0,20.0,96,0.00,,,0.00,meteohub,2013-09-13 03:47:00,
2013-09-12 20:52:00,57.0,55.9,29.86,WSW,250,9.0,20.0,96,0.00,,,0.00,meteohub,2013-09-13 03:52:00,
2013-09-12 20:57:00,56.8,55.8,29.86,West,259,15.0,20.0,96,0.00,,,0.00,meteohub,2013-09-13 03:57:00,
2013-09-12 21:02:00,56.8,55.8,29.86,WSW,254,18.0,20.0,96,0.00,,,0.00,meteohub,2013-09-13 04:02:00,
2013-09-12 21:07:00,56.8,55.8,29.86,West,262,13.0,21.0,96,0.00,,,0.00,meteohub,2013-09-13 04:07:00,
2013-09-12 21:12:00,56.7,55.6,29.86,West,262,12.0,21.0,96,0.00,,,0.00,meteohub,2013-09-13 04:12:00,
2013-09-12 21:17:00,56.7,55.6,29.86,WSW,256,11.0,21.0,96,0.00,,,0.00,meteohub,2013-09-13 04:17:00,
2013-09-12 21:22:00,56.5,55.4,29.86,WSW,252,14.0,18.0,96,0.00,,,0.00,meteohub,2013-09-13 04:22:00,
2013-09-12 21:27:00,56.3,55.2,29.86,WSW,251,10.0,18.0,96,0.00,,,0.00,meteohub,2013-09-13 04:27:00,
2013-09-12 21:32:00,56.3,55.2,29.86,SW,236,11.0,18.0,96,0.00,,,0.00,meteohub,2013-09-13 04:32:00,
2013-09-12 21:37:00,55.9,54.9,29.86,WSW,253,13.0,18.0,96,0.00,,,0.00,meteohub,2013-09-13 04:37:00,
2013-09-12 21:42:00,55.9,54.9,29.86,WSW,251,15.0,16.0,96,0.00,,,0.00,meteohub,2013-09-13 04:42:00,
2013-09-12 21:47:00,55.8,54.9,29.86,WSW,242,11.0,19.0,97,0.00,,,0.00,meteohub,2013-09-13 04:47:00,
2013-09-12 21:52:00,55.6,54.7,29.86,West,261,13.0,19.0,97,0.00,,,0.00,meteohub,2013-09-13 04:52:00,
2013-09-12 21:57:00,55.6,54.7,29.86,West,259,8.0,19.0,97,0.00,,,0.00,meteohub,2013-09-13 04:57:00,
2013-09-12 22:02:00,55.8,54.9,29.86,WSW,244,12.0,18.0,97,0.00,,,0.00,meteohub,2013-09-13 05:02:00,
2013-09-12 22:07:00,55.6,54.7,29.86,WSW,257,5.0,18.0,97,0.00,,,0.00,meteohub,2013-09-13 05:07:00,
2013-09-12 22:12:00,55.6,54.7,29.86,WSW,257,8.0,15.0,97,0.00,,,0.00,meteohub,2013-09-13 05:12:00,
2013-09-12 22:17:00,55.6,54.7,29.86,WSW,257,8.0,15.0,97,0.00,,,0.00,meteohub,2013-09-13 05:17:00,
2013-09-12 22:22:00,55.6,54.7,29.86,WSW,254,10.0,11.0,97,0.00,,,0.00,meteohub,2013-09-13 05:22:00,
2013-09-12 22:27:00,55.4,54.5,29.86,WSW,246,12.0,13.0,97,0.00,,,0.00,meteohub,2013-09-13 05:27:00,
2013-09-12 22:32:00,55.2,54.3,29.86,WSW,240,8.0,15.0,97,0.00,,,0.00,meteohub,2013-09-13 05:32:00,
2013-09-12 22:37:00,55.0,54.1,29.86,WSW,238,10.0,15.0,97,0.00,,,0.00,meteohub,2013-09-13 05:37:00,
2013-09-12 22:42:00,55.2,54.3,29.87,WSW,247,8.0,15.0,97,0.00,,,0.00,meteohub,2013-09-13 05:42:00,
2013-09-12 22:47:00,55.2,54.3,29.87,WSW,244,8.0,13.0,97,0.00,,,0.00,meteohub,2013-09-13 05:47:00,
2013-09-12 22:52:00,55.2,54.3,29.87,SW,234,10.0,13.0,97,0.00,,,0.00,meteohub,2013-09-13 05:52:00,
2013-09-12 22:57:00,55.2,54.3,29.87,SW,233,7.0,13.0,97,0.00,,,0.00,meteohub,2013-09-13 05:57:00,
2013-09-12 23:02:00,55.2,54.3,29.87,SW,233,6.0,13.0,97,0.00,,,0.00,meteohub,2013-09-13 06:02:00,
2013-09-12 23:07:00,55.2,54.3,29.87,SW,233,7.0,13.0,97,0.00,,,0.00,meteohub,2013-09-13 06:07:00,
2013-09-12 23:12:00,55.2,54.3,29.87,SW,233,6.0,9.0,97,0.00,,,0.00,meteohub,2013-09-13 06:12:00,
2013-09-12 23:17:00,55.2,54.3,29.87,SW,233,7.0,9.0,97,0.00,,,0.00,meteohub,2013-09-13 06:17:00,
2013-09-12 23:22:00,55.2,54.3,29.87,SW,233,6.0,9.0,97,0.00,,,0.00,meteohub,2013-09-13 06:22:00,
2013-09-12 23:27:00,55.2,54.3,29.86,SW,233,6.0,10.0,97,0.00,,,0.00,meteohub,2013-09-13 06:27:00,
2013-09-12 23:32:00,55.2,54.3,29.86,SW,233,7.0,10.0,97,0.00,,,0.00,meteohub,2013-09-13 06:32:00,
2013-09-12 23:37:00,55.2,54.3,29.86,SW,233,5.0,9.0,97,0.00,,,0.00,meteohub,2013-09-13 06:37:00,
2013-09-12 23:42:00,55.2,54.3,29.86,SW,233,5.0,9.0,97,0.00,,,0.00,meteohub,2013-09-13 06:42:00,
2013-09-12 23:47:00,55.2,54.3,29.86,SW,233,5.0,9.0,97,0.00,,,0.00,meteohub,2013-09-13 06:47:00,
2013-09-12 23:52:00,55.2,54.3,29.86,SW,233,6.0,9.0,97,0.00,,,0.00,meteohub,2013-09-13 06:52:00,
2013-09-12 23:57:00,55.2,54.3,29.86,SW,233,6.0,9.0,97,0.00,,,0.00,meteohub,2013-09-13 06:57:00,